Probability
0 0 0 0 0 0 0 0 0 0 0 0 0 0 0 0 0 0 0 0 0 0 0 0 0 0 0 0 0 0 0 0 0 0 0 0 0 0 0 0 0 0 0
0 0 0 0 0 0 0 0 0 0 0 0 0 0 0 0 0 0 0 0 0 0 0 0 0 0 0 0 0 0 0 0 0 0 0 0 0 0 0 0 0 0 0
0 0 0 0 0 0 0 0 0 0 0 0 0 0 0 0 0 0 0 0 0 0 0 0 0 0 0 0 0 0 0 0 0 0 0 0 0 0 0 0 0 0 0
1 1 1 1 0 0 0 0 0 0 0 0 0 0 0 0 0 0 0 0 0 0 0 0 0 0 0 0 0 0 0 0 0 0 0 0 0 0 0 0 0 0 0
4 4 3 3 1 0 0 0 0 0 0 0 0 0 0 0 0 0 0 0 0 0 0 0 0 0 0 0 0 0 0 0 0 0 0 0 0 0 0 0 0 0 0
12 11 9 6 3 1 0 0 0 0 0 0 0 0 0 0 0 0 0 0 0 0 0 0 0 0 0 0 0 0 0 0 0 0 0 0 0 0 0 0 0 0 0
18 18 17 13 8 4 1 0 0 0 0 0 0 0 0 0 0 0 0 0 0 0 0 0 0 0 0 0 0 0 0 0 0 0 0 0 0 0 0 0 0 0 0
14 18 22 22 16 10 6 2 1 1 1 0 0 0 0 0 0 0 0 0 0 0 0 0 0 0 0 0 0 0 0 0 0 0 0 0 0 0 0 0 0 0 0
9 11 16 22 22 19 15 9 5 3 2 1 0 0 0 0 0 0 0 0 0 0 0 0 0 0 0 0 0 0 0 0 0 0 0 0 0 0 0 0 0 0 0
7 8 11 16 20 24 24 19 12 7 6 4 1 0 0 0 0 0 0 0 0 0 0 0 0 0 0 0 0 0 0 0 0 0 0 0 0 0 0 0 0 0 0
7 10 14 17 20 24 27 26 21 17 16 13 6 1 0 0 0 0 0 0 0 0 0 0 0 0 0 0 0 0 0 0 0 0 0 0 0 0 0 0 0 0 0
4 8 15 19 22 25 28 29 29 28 27 22 13 5 1 0 0 0 0 0 0 0 0 0 0 0 0 0 0 0 0 0 0 0 0 0 0 0 0 0 0 0 0
1 3 7 11 16 20 25 30 34 35 33 28 19 10 3 1 0 0 0 0 0 0 0 0 0 0 0 0 0 0 0 0 0 0 0 0 0 0 0 0 0 0 0
0 0 1 3 6 10 17 27 35 36 35 31 23 13 7 2 1 0 0 0 0 0 0 0 0 0 0 0 0 0 0 0 0 0 0 0 0 0 0 0 0 0 0
0 0 0 0 1 2 6 15 26 31 31 28 22 14 8 3 1 0 0 0 0 0 0 0 0 0 0 0 0 0 0 0 0 0 0 0 0 0 0 0 0 0 0
0 0 0 0 0 0 1 5 12 19 20 17 14 11 7 3 1 0 0 0 0 0 0 0 0 0 0 0 0 0 0 0 0 0 0 0 0 0 0 0 0 0 0
0 0 0 0 0 0 0 0 3 6 8 6 5 5 3 1 0 0 0 0 0 0 0 0 0 0 0 0 0 0 0 0 0 0 0 0 0 0 0 0 0 0 0
0 0 0 0 0 0 0 0 0 1 1 1 0 1 1 0 0 0 0 0 0 0 0 0 0 0 0 0 0 0 0 0 0 0 0 0 0 0 0 0 0 0 0
0 0 0 0 0 0 0 0 0 0 0 0 0 0 0 0 0 0 0 0 0 0 0 0 0 0 0 0 0 0 0 0 0 0 0 0 0 0 0 0 0 0 0
0 0 0 0 0 0 0 0 0 0 0 0 0 0 0 0 0 0 0 0 0 0 0 0 0 0 0 0 0 0 0 0 0 0 0 0 0 0 0 0 0 0 0
0 0 0 0 0 0 0 0 0 0 0 0 0 0 0 0 0 0 0 0 0 0 0 0 0 0 0 0 0 0 0 0 0 0 0 0 0 0 0 0 0 0 0
0 0 0 0 0 0 0 0 0 0 0 0 0 0 0 0 0 0 0 0 0 0 0 0 0 0 0 0 0 0 0 0 0 0 0 0 0 0 0 0 0 0 0
0 0 0 0 0 0 0 0 0 0 0 0 0 0 0 0 0 0 0 0 0 0 0 0 0 0 0 0 0 0 0 0 0 0 0 0 0 0 0 0 0 0 0
0 0 0 0 0 0 0 0 0 0 0 0 0 0 0 0 0 0 0 0 0 0 0 0 0 0 0 0 0 0 0 0 0 0 0 0 0 0 0 0 0 0 0
0 0 0 0 0 0 0 0 0 0 0 0 0 0 0 0 0 0 0 0 0 0 0 0 0 0 0 0 0 0 0 0 0 0 0 0 0 0 0 0 0 0 0
0 0 0 0 0 0 0 0 0 0 0 0 0 0 0 0 0 0 0 0 0 0 0 0 0 0 0 0 0 0 0 0 0 0 0 0 0 0 0 0 0 0 0
Wind_Speed
4 4 4 6 6 5 5 5 5 5 5 5 4 4 5 4 3 6 5 10 11 11 10 9 8 8 8 8 8 8 8 8 8 8 8 8 8 8 9 9 9 10 10
5 4 4 5 5 5 5 5 5 4 4 3 4 3 4 4 4 7 6 7 11 11 11 10 9 9 8 8 7 7 7 6 6 6 6 6 7 7 7 7 7 8 8
6 5 4 4 4 5 5 5 5 4 4 4 4 4 3 3 4 6 8 6 6 9 11 11 10 10 9 8 8 7 6 5 5 4 4 5 5 5 5 6 6 6 7
7 5 5 4 5 5 4 4 4 4 4 4 3 3 3 2 3 4 7 7 6 6 8 11 11 11 10 9 8 7 6 5 4 3 2 3 3 3 4 5 6 6 7
8 6 5 5 5 5 5 5 4 4 4 4 4 4 4 4 4 3 5 8 8 7 6 9 11 11 11 10 9 7 6 4 3 2 1 1 2 3 4 5 6 7 8
7 7 6 7 6 5 5 5 5 5 4 5 4 4 4 4 4 4 5 5 6 8 8 8 6 7 11 12 10 9 7 5 3 2 2 1 2 3 5 6 7 8 9
6 6 6 7 7 6 7 7 6 6 5 4 3 1 2 3 4 5 4 4 6 7 8 9 7 5 5 12 12 10 8 6 5 3 2 2 3 4 6 7 8 9 10
7 5 6 6 6 6 7 8 7 5 5 6 5 3 3 3 5 6 5 6 6 6 7 9 9 8 7 5 8 12 10 8 6 4 3 3 4 6 7 8 10 11 12
9 8 7 7 7 7 7 8 8 9 7 6 6 6 5 7 4 4 7 6 6 6 6 7 8 9 9 7 6 10 11 9 7 6 4 4 5 7 9 10 11 12 13
9 10 10 9 8 7 8 8 9 8 8 6 5 5 4 4 5 3 2 4 5 5 6 6 6 7 7 6 9 13 12 10 8 6 6 6 7 8 10 11 12 13 14
7 9 10 10 10 8 9 9 9 9 8 8 6 4 5 4 2 4 3 3 3 3 3 4 4 4 6 6 6 10 13 11 9 7 7 7 8 10 11 12 13 14 15
4 6 8 8 9 9 9 10 9 10 10 10 8 6 6 5 5 4 4 3 3 1 0 1 2 3 4 5 7 12 12 11 9 7 7 8 10 11 12 14 14 15 16
4 5 4 5 6 8 9 9 9 10 10 9 9 8 7 7 4 4 4 4 3 1 1 1 1 2 3 3 4 10 9 9 8 7 8 10 11 12 13 15 16 17 17
4 5 4 4 4 5 7 8 8 8 7 9 9 8 6 5 4 4 4 5 4 2 1 2 1 1 2 3 4 8 4 8 8 9 10 12 13 13 14 16 16 17 18
4 5 5 4 4 3 3 4 5 6 6 6 6 5 4 3 2 2 2 4 6 6 7 5 3 3 3 3 6 3 2 7 9 11 12 13 14 15 16 16 17 17 18
6 6 7 6 6 5 5 3 1 1 2 2 1 2 2 2 3 2 2 1 2 3 4 3 3 2 4 4 7 4 4 8 11 13 14 15 15 16 16 17 18 18 18
7 7 7 7 7 7 6 5 4 3 2 2 3 3 4 4 4 3 3 2 2 2 3 3 2 2 3 4 3 3 3 4 5 12 15 15 16 16 17 18 18 18 19
8 8 8 8 8 8 7 6 6 5 5 5 4 5 6 5 6 4 4 4 3 3 3 4 2 3 3 4 4 3 4 5 4 10 15 15 16 17 17 18 18 18 18
9 10 9 9 9 9 9 8 8 8 8 7 7 7 6 6 6 5 5 4 3 4 3 4 3 2 2 2 3 3 4 4 5 8 12 14 15 16 17 17 18 18 18
9 9 10 9 9 9 9 9 9 9 10 9 9 8 7 6 6 6 5 4 4 4 4 3 2 1 1 2 2 2 3 3 3 4 8 10 13 15 16 17 18 18 19
9 9 9 9 9 8 8 9 9 10 10 9 9 9 8 9 9 6 5 4 3 3 2 2 2 1 1 1 1 1 2 2 3 4 3 4 5 5 7 13 17 18 19
9 9 10 10 10 9 14 16 11 9 9 9 9 8 8 9 10 9 8 6 4 2 2 1 1 1 1 1 1 0 0 2 3 2 2 5 5 6 6 6 14 19 19
9 9 9 9 10 12 16 17 16 9 9 8 7 6 5 6 7 5 5 5 4 3 2 1 0 1 1 1 0 1 1 3 4 4 4 7 5 7 6 9 18 19 19
7 7 8 8 8 10 15 15 14 8 7 6 6 5 4 4 4 4 3 2 2 1 1 0 1 1 1 1 1 2 3 4 5 4 3 6 5 6 7 6 15 19 18
6 6 5 6 6 7 12 12 9 4 4 4 4 4 4 3 4 5 3 2 2 2 2 3 4 5 8 8 6 2 2 3 5 4 2 3 3 4 5 6 8 13 14
5 4 4 4 5 4 9 10 8 3 3 3 2 2 4 4 6 6 3 2 2 2 3 4 5 6 5 6 8 3 3 3 3 4 2 2 3 4 6 4 3 4 7
Wind_Direction
171 180 178 173 183 186 184 184 204 196 190 189 199 190 170 196 162 133 143 149 151 155 156 154 150 143 134 124 113 103 94 87 82 76 70 65 60 54 50 47 42 36 31
180 187 191 183 186 188 177 185 201 192 184 181 190 197 195 190 168 141 147 154 159 164 168 169 165 160 152 142 130 119 107 95 86 78 71 64 58 51 43 39 34 27 21
190 189 194 192 189 189 182 184 200 188 179 174 186 198 202 199 174 150 153 156 160 170 177 180 177 173 168 160 149 138 126 111 97 83 71 62 51 40 30 23 16 10 6
199 193 195 201 191 187 187 187 193 179 175 172 182 199 195 187 193 172 160 161 163 170 184 188 185 182 179 174 167 157 145 133 120 100 74 55 36 18 6 359 354 350 346
203 196 198 203 196 192 192 191 189 177 177 182 191 193 192 185 202 200 173 167 167 168 172 188 184 185 185 185 181 174 164 156 151 150 131 14 352 341 338 335 334 332 330
213 205 201 203 199 196 198 192 189 188 182 180 189 190 196 192 194 202 197 178 170 168 168 172 171 182 187 191 191 187 182 179 183 197 211 267 306 315 319 319 321 321 320
229 216 209 206 206 206 202 195 184 192 196 165 149 193 254 223 209 205 200 189 180 175 168 169 172 171 186 196 196 194 192 193 196 208 230 268 293 303 309 311 313 313 312
234 236 222 215 212 214 210 203 195 187 190 172 153 141 216 254 251 220 202 200 191 179 180 177 178 176 178 176 193 194 195 198 201 212 234 267 290 299 303 305 306 307 307
219 227 233 227 221 216 219 214 204 197 199 195 178 167 177 209 216 228 216 205 195 187 188 182 183 178 173 170 174 188 187 194 205 216 235 264 284 294 298 301 303 303 303
216 216 221 225 227 225 224 221 215 209 199 200 209 217 207 173 166 203 249 219 201 194 189 188 184 175 166 156 170 177 180 188 205 223 241 263 280 290 297 299 301 301 302
227 220 218 219 223 225 227 225 221 216 212 207 198 200 227 244 204 157 201 222 220 212 188 181 172 168 159 150 155 171 178 191 207 226 248 267 282 291 296 299 300 300 300
262 236 223 220 221 222 225 226 227 224 220 216 208 197 190 197 205 191 180 172 196 225 140 112 144 148 145 147 163 171 180 195 213 232 254 274 286 295 299 300 299 298 296
287 273 250 232 226 224 224 223 224 228 226 223 219 215 210 212 190 189 186 159 146 114 51 46 49 101 118 115 146 169 188 202 222 242 263 279 290 298 300 298 297 296 295
293 302 299 279 256 239 229 222 224 227 225 225 225 219 215 211 201 191 180 159 150 162 196 202 52 87 105 115 159 175 198 217 236 254 268 281 290 295 295 294 294 294 294
324 329 328 320 310 297 269 234 229 229 226 227 222 212 209 194 184 181 169 172 172 187 205 189 185 177 144 139 172 176 196 231 251 265 274 281 287 289 288 289 290 291 290
358 0 5 5 4 4 360 347 307 258 217 222 197 177 167 134 120 118 137 144 171 178 176 156 167 150 161 180 193 192 221 247 262 273 278 281 283 284 286 288 289 289 288
13 16 18 21 22 21 19 21 23 33 65 77 84 109 109 109 110 106 105 108 100 123 137 121 116 127 152 176 195 204 230 247 261 271 278 282 284 286 288 288 288 287 286
26 26 27 32 34 34 33 37 40 46 60 69 75 90 97 99 98 96 95 94 94 83 120 134 130 147 171 181 192 217 238 246 247 270 279 283 285 287 288 287 286 285 284
35 34 36 38 39 41 43 45 53 57 62 66 72 83 87 95 94 92 92 92 89 80 83 116 124 143 165 183 192 222 246 257 262 273 283 289 291 291 289 288 288 287 285
44 43 44 44 45 49 52 55 61 65 66 65 66 71 73 82 91 92 89 91 92 90 93 103 115 137 163 178 176 218 254 257 271 283 286 289 292 295 295 295 293 291 288
52 50 52 51 49 52 57 63 65 70 71 70 67 67 71 80 87 85 91 87 85 85 95 105 118 129 155 167 212 211 245 287 289 275 277 287 296 290 291 291 291 288 285
54 55 54 54 55 60 70 73 74 69 70 70 68 64 64 62 68 74 83 83 79 82 85 94 105 145 235 238 214 183 299 318 299 304 324 293 283 280 275 265 281 286 288
60 59 56 56 59 65 71 73 73 70 69 67 65 61 61 60 55 45 50 57 45 41 53 91 147 251 259 241 121 321 280 263 259 273 297 287 272 274 272 280 289 293 295
64 64 62 60 61 65 70 73 75 71 70 65 62 58 59 55 47 39 33 30 2 342 313 323 197 253 275 265 223 233 246 268 270 268 260 276 280 274 282 278 288 291 293
71 68 68 67 64 60 64 66 71 70 73 71 68 60 55 48 30 24 25 1 342 326 325 327 303 294 291 287 277 264 274 289 293 288 254 257 286 297 283 275 283 292 297
83 79 73 71 73 61 57 54 55 55 58 54 55 62 55 37 14 13 22 11 352 346 358 342 326 313 302 292 289 248 206 227 268 289 281 295 298 328 309 284 272 287 295